[[{"header":{"parameterUnit":"m.s-1","parameterCategory":1,"la1":30.2991,"la2":30.254,"lo1":-89.0895,"lo2":-89.0444,"dy":0.0017,"dx":0.0017,"nx":28,"ny":28,"refTime":"2025-08-02T21:00:00:Z","depth":0,"parameterNumber":2,"parameterNumberName":"U-component_of_WINDS"},"data":[0,0,0,0,0,0,0,0,0,0,0,0,0,0,0,0,0,0,0,0,0,0,0,0,0,0,0,0,0,0,0,0,0,0,0,0,0,0,0,0,0,0,0,0,0,0,0,0,0,0,0,0,0,0,0,0,0,0,0.039,0.0391,0,0.0513,0.0514,0.0516,0.0556,0.0555,0.0555,0.0554,0.0684,0.0688,0.0692,0,0,0,0,0,0,0,0,0,0,0,0,0,0.0195,0.0198,0.039,0.0391,0.0393,0.0512,0.0514,0.0516,0.0556,0.0555,0.0555,0.0554,0.0683,0.0687,0.0692,0,0,0,0,0,0,0,0,0,0,0,0,0,0.0295,0.0199,0.039,0.0427,0.0432,0.0512,0.0514,0.0516,0.0556,0.0555,0.0554,0.0554,0.0681,0.0687,0.0693,0.0746,0,0,0.0711,0.0714,0,0,0,0,0,0,0,0,0.0289,0.0302,0.042,0.0425,0.043,0.0518,0.0493,0.0593,0.0556,0.0509,0.0554,0.0553,0.063,0.064,0.0665,0.0752,0.0758,0.0711,0.0715,0.0718,0.0719,0,0,0,0,0,0,0,0.0282,0.0297,0.0439,0.0422,0.0428,0.0439,0.0453,0.0512,0.0573,0.0513,0.0516,0.053,0.0632,0.0659,0.0668,0.0759,0.0711,0.0717,0.072,0.0723,0.0897,0.0898,0,0,0,0,0,0,0.0268,0.0291,0.0435,0.0442,0.0356,0.0444,0.0458,0.0491,0.0572,0.0584,0.0531,0.0531,0.0649,0.0661,0.0673,0.0741,0.0718,0.0723,0.0727,0.0896,0.0897,0.0898,0,0,0,0,0,0,0.0264,0.028,0.043,0.0367,0.0387,0.0448,0.0484,0.0494,0.052,0.0585,0.0597,0.0546,0.0649,0.0664,0.0727,0.0746,0.0726,0.0731,0.0895,0.0896,0.0898,0.0876,0,0,0,0,0,0,0.0258,0.0279,0.0298,0.0368,0.039,0.0481,0.0485,0.0497,0.053,0.0532,0.0603,0.0614,0.065,0.0718,0.0733,0.0753,0.0736,0.0893,0.0895,0.0897,0.0875,0.0877,0.0878,0,0,0,0,0,0.0251,0.0288,0.0299,0.0316,0.0416,0.0482,0.0495,0.0534,0.0531,0.0552,0.0594,0.0612,0.0741,0.0724,0.0741,0.0764,0.0892,0.0895,0.0897,0.0875,0.0876,0.0878,0,0,0,0,0,0,0.0221,0.0298,0.0311,0.0372,0.042,0.0488,0.0516,0.0534,0.0585,0.0585,0.0633,0.0648,0.0708,0.0742,0.0722,0.082,0.0818,0.0824,0.0795,0.0797,0.0798,0.0789,0.0741,0,0,0,0,0,0.0221,0.0267,0.0332,0.038,0.0403,0.0455,0.0485,0.0511,0.0563,0.0584,0.0631,0.0682,0.0734,0.0767,0.0819,0.0881,0.0897,0.0905,0.0906,0.0906,0.0911,0.0947,0.0951,0.0906,0.0906,0.0906,0,0,0.0223,0.0271,0.0297,0.0375,0.0415,0.0462,0.0472,0.0522,0.0558,0.0592,0.0654,0.069,0.075,0.0812,0.0842,0.0843,0.0927,0.091,0.091,0.0914,0.095,0.0954,0.0957,0.0908,0.0908,0.0907,0,0,0.025,0.029,0.0334,0.0374,0.0434,0.0469,0.0479,0.0545,0.057,0.0632,0.0659,0.0704,0.0792,0.0834,0.0867,0.091,0.0928,0.0926,0.0932,0.0966,0.097,0.0973,0.0989,0.0993,0.093,0.093,0.093,0,0.0245,0.0316,0.0355,0.0403,0.0437,0.0469,0.0514,0.0552,0.0626,0.065,0.0649,0.0761,0.0804,0.0877,0.0887,0.0913,0.0927,0.0918,0.0966,0.0969,0.0973,0.0989,0.0994,0.0929,0.0929,0.0929,0.0929,0,0.0306,0.0355,0.0384,0.0453,0.0491,0.0537,0.0584,0.0618,0.064,0.0675,0.0739,0.0791,0.0854,0.0873,0.0896,0.095,0.0948,0.0956,0.0955,0.0976,0.0991,0.0997,0.0928,0.0928,0.0929,0.0929,0,0,0.0318,0.0408,0.0418,0.045,0.0519,0.0559,0.0607,0.0667,0.0695,0.0746,0.0788,0.0862,0.087,0.0907,0.0935,0.0965,0.0996,0.097,0.0972,0.0973,0.1058,0.1052,0.1058,0.1009,0.101,0.1011,0.1053,0,0.0354,0.044,0.0477,0.0547,0.0593,0.0624,0.0667,0.0714,0.0748,0.0794,0.0832,0.0884,0.089,0.0912,0.0943,0.0986,0.1014,0.0983,0.105,0.1052,0.1033,0.1066,0.106,0.1097,0.106,0.1061,0.1061,0,0.0407,0.0456,0.0531,0.0594,0.0615,0.0652,0.071,0.0753,0.0808,0.0831,0.0872,0.0898,0.0952,0.0947,0.1022,0.1,0.1029,0.1054,0.1057,0.1065,0.1058,0.1075,0.111,0.1116,0.1071,0.107,0.107,0,0.0408,0.0494,0.0549,0.0575,0.0651,0.0676,0.0709,0.0763,0.0797,0.0849,0.0871,0.0929,0.096,0.1004,0.1046,0.1039,0.1117,0.1116,0.1138,0.1137,0.1154,0.1152,0.1194,0.1172,0.1172,0.1172,0.1172,0,0.0445,0.0489,0.055,0.0584,0.0635,0.0678,0.0727,0.0763,0.0811,0.0853,0.0884,0.0924,0.0976,0.1023,0.1056,0.1113,0.1127,0.1148,0.1156,0.1145,0.1142,0.1165,0.1164,0.1174,0.1173,0.1173,0.1173,0,0.0455,0.0497,0.056,0.0626,0.0643,0.0678,0.0735,0.077,0.0805,0.0859,0.0874,0.093,0.0986,0.1032,0.1107,0.1129,0.1189,0.1198,0.1169,0.1174,0.1194,0.1191,0.1252,0.1262,0.1233,0.1234,0.1234,0,0.0475,0.0509,0.0579,0.0608,0.0641,0.0689,0.0723,0.0767,0.0801,0.0867,0.0894,0.0952,0.1001,0.109,0.1138,0.1195,0.1207,0.1224,0.1215,0.1203,0.1207,0.1204,0.1208,0.1225,0.1225,0.1225,0.1225,0,0.0506,0.0526,0.0573,0.0628,0.0668,0.0714,0.0761,0.0784,0.0837,0.0874,0.0931,0.0969,0.1044,0.1102,0.1164,0.12,0.1222,0.1227,0.1235,0.1225,0.1206,0.1217,0.1172,0.1226,0.1225,0.1225,0.1225,0.1225,0.0522,0.0554,0.0608,0.066,0.07,0.0743,0.0779,0.0818,0.0866,0.093,0.0953,0.1012,0.1067,0.1152,0.1188,0.1236,0.1238,0.125,0.1253,0.1255,0.1254,0.1198,0.1247,0.1247,0.1247,0.1247,0.1247,0,0.0555,0.0591,0.0639,0.0703,0.0744,0.0759,0.0812,0.0846,0.0897,0.0946,0.0993,0.1059,0.1115,0.1167,0.1226,0.1255,0.1266,0.1269,0.1267,0.1275,0.1248,0.1235,0.1258,0.1258,0.1258,0.1258,0.1258,0.1258,0.0578,0.0633,0.0659,0.0734,0.0771,0.0827,0.0856,0.0896,0.0935,0.1007,0.1054,0.1087,0.1138,0.12,0.1253,0.1267,0.1288,0.1288,0.1304,0.1279,0.1277,0.1275,0.1263,0.1292,0.1292,0.1327,0.1328,0.1328]},{"header":{"parameterUnit":"m.s-1","parameterCategory":1,"la1":30.2991,"la2":30.254,"lo1":-89.0895,"lo2":-89.0444,"dy":0.0017,"dx":0.0017,"nx":28,"ny":28,"refTime":"2025-08-02T21:00:00:Z","depth":0,"parameterNumber":3,"parameterNumberName":"V-component_of_WINDS"},"data":[0,0,0,0,0,0,0,0,0,0,0,0,0,0,0,0,0,0,0,0,0,0,0,0,0,0,0,0,0,0,0,0,0,0,0,0,0,0,0,0,0,0,0,0,0,0,0,0,0,0,0,0,0,0,0,0,0,0,1.5591,1.5591,0,1.5588,1.5588,1.5588,1.557,1.5569,1.5569,1.5568,1.5566,1.5566,1.5567,0,0,0,0,0,0,0,0,0,0,0,0,0,1.5578,1.5578,1.5591,1.5591,1.5591,1.5588,1.5588,1.5588,1.557,1.5569,1.5569,1.5568,1.5566,1.5566,1.5567,0,0,0,0,0,0,0,0,0,0,0,0,0,1.558,1.5579,1.5591,1.5581,1.558,1.5588,1.5588,1.5588,1.557,1.5569,1.5569,1.5568,1.5566,1.5566,1.5567,1.5584,0,0,1.5568,1.5569,0,0,0,0,0,0,0,0,1.558,1.5581,1.5583,1.5582,1.5581,1.5579,1.5583,1.5587,1.557,1.5574,1.5568,1.5568,1.5571,1.5571,1.5572,1.5583,1.5583,1.5568,1.5569,1.5569,1.5569,0,0,0,0,0,0,0,1.558,1.5581,1.559,1.5583,1.5582,1.5577,1.5576,1.5583,1.5576,1.5573,1.5572,1.5572,1.557,1.5571,1.5572,1.5583,1.5568,1.5569,1.5569,1.5569,1.5606,1.5606,0,0,0,0,0,0,1.5582,1.5581,1.559,1.559,1.5579,1.5577,1.5577,1.558,1.5576,1.5575,1.5573,1.5571,1.5571,1.5571,1.5571,1.5589,1.5569,1.5569,1.557,1.5605,1.5606,1.5607,0,0,0,0,0,0,1.5581,1.5583,1.559,1.5585,1.5585,1.5578,1.5582,1.558,1.5582,1.5575,1.5574,1.5575,1.557,1.5571,1.558,1.5588,1.557,1.557,1.5604,1.5605,1.5606,1.5625,0,0,0,0,0,0,1.5581,1.5583,1.5589,1.5585,1.5586,1.5599,1.5583,1.5581,1.5582,1.5581,1.5577,1.5576,1.557,1.5579,1.5581,1.5589,1.5571,1.5603,1.5605,1.5606,1.5624,1.5627,1.5629,0,0,0,0,0,1.5581,1.5596,1.559,1.5591,1.5594,1.56,1.56,1.5592,1.5583,1.559,1.5585,1.5576,1.5588,1.558,1.5582,1.559,1.5603,1.5604,1.5606,1.5622,1.5626,1.5629,0,0,0,0,0,0,1.5602,1.5595,1.5589,1.5603,1.5602,1.5597,1.5605,1.5597,1.5598,1.5596,1.5587,1.5586,1.5596,1.5594,1.5587,1.5605,1.5594,1.5595,1.5606,1.5609,1.5612,1.5611,1.5571,0,0,0,0,0,1.5608,1.5613,1.5607,1.562,1.562,1.5612,1.5614,1.5608,1.5607,1.5606,1.5603,1.5602,1.5605,1.5607,1.561,1.5623,1.5621,1.563,1.5633,1.5635,1.5636,1.5641,1.5644,1.5611,1.5611,1.5611,0,0,1.5621,1.5618,1.5622,1.5624,1.5623,1.5627,1.5612,1.5618,1.5621,1.5607,1.5615,1.5613,1.5611,1.5621,1.5626,1.562,1.5645,1.5637,1.5638,1.5639,1.5643,1.5646,1.5648,1.5612,1.5612,1.5612,0,0,1.5647,1.5646,1.5655,1.5653,1.5651,1.5646,1.5648,1.5643,1.5641,1.5648,1.5637,1.5641,1.5647,1.5645,1.5645,1.5667,1.5658,1.5669,1.5682,1.5687,1.569,1.5692,1.5698,1.5701,1.567,1.567,1.567,0,1.5663,1.567,1.5661,1.5667,1.5667,1.5654,1.5663,1.5662,1.5661,1.5661,1.5654,1.5659,1.5658,1.5667,1.5672,1.5673,1.5674,1.5669,1.569,1.5692,1.5694,1.57,1.5702,1.5671,1.5671,1.5671,1.5671,0,1.5689,1.5694,1.5702,1.5699,1.5701,1.5708,1.57,1.5702,1.5695,1.569,1.5697,1.5694,1.5694,1.5696,1.569,1.5704,1.57,1.5692,1.568,1.5698,1.5703,1.5706,1.5673,1.5672,1.5672,1.5672,0,0,1.5728,1.572,1.5723,1.572,1.5716,1.5719,1.5725,1.5725,1.5726,1.5726,1.573,1.5734,1.5726,1.5726,1.5719,1.5723,1.5739,1.5715,1.5714,1.5718,1.5751,1.5756,1.5759,1.5733,1.5733,1.5734,1.5751,0,1.5751,1.5761,1.5752,1.5763,1.5766,1.5753,1.5758,1.5755,1.575,1.5752,1.5746,1.5748,1.5739,1.5738,1.5742,1.5736,1.5745,1.5735,1.5735,1.5735,1.5735,1.5762,1.5768,1.5784,1.5753,1.5753,1.5753,0,1.578,1.5779,1.579,1.5782,1.5783,1.5788,1.5786,1.5788,1.5784,1.578,1.5779,1.577,1.5774,1.5763,1.5768,1.5761,1.5761,1.5758,1.5758,1.5757,1.5745,1.576,1.5789,1.5791,1.5757,1.5757,1.5756,0,1.5805,1.5807,1.5813,1.5812,1.5804,1.5807,1.5804,1.5799,1.5799,1.5797,1.5796,1.5795,1.5795,1.5794,1.5785,1.5778,1.579,1.5779,1.5786,1.5786,1.5788,1.5788,1.5816,1.579,1.579,1.579,1.579,0,1.583,1.5837,1.5823,1.5827,1.5834,1.5823,1.583,1.5825,1.5821,1.5823,1.5812,1.5814,1.5802,1.5803,1.5796,1.5799,1.58,1.5796,1.5793,1.5796,1.5796,1.5795,1.5793,1.5791,1.5791,1.579,1.579,0,1.5859,1.5851,1.5856,1.5847,1.5845,1.5851,1.5843,1.5845,1.5839,1.5841,1.5841,1.5832,1.5831,1.5822,1.582,1.5816,1.5822,1.5818,1.5823,1.5821,1.5828,1.5827,1.5856,1.5858,1.5832,1.5832,1.5832,0,1.5876,1.588,1.5872,1.5872,1.5869,1.587,1.5869,1.5858,1.5858,1.5852,1.5855,1.5854,1.5852,1.5852,1.5844,1.5842,1.5838,1.5848,1.5837,1.5839,1.5836,1.5835,1.5835,1.585,1.585,1.585,1.5851,0,1.5905,1.59,1.5899,1.5896,1.5895,1.5893,1.589,1.589,1.5878,1.5878,1.5877,1.5876,1.5873,1.5871,1.5868,1.5864,1.5855,1.5854,1.5855,1.5857,1.5859,1.5856,1.5827,1.5853,1.5853,1.5853,1.5853,1.5852,1.5927,1.5929,1.5923,1.5922,1.5918,1.5915,1.5916,1.5909,1.5908,1.5905,1.5899,1.5898,1.5892,1.5886,1.5883,1.5882,1.5877,1.5879,1.5879,1.588,1.588,1.586,1.5881,1.5881,1.5881,1.5881,1.5881,0,1.5954,1.5949,1.5948,1.5943,1.5942,1.5933,1.5928,1.5928,1.5927,1.5923,1.5921,1.5919,1.5916,1.5908,1.5905,1.5905,1.5901,1.5905,1.5904,1.5903,1.5886,1.5884,1.5908,1.5908,1.5908,1.5908,1.5908,1.5908,1.5968,1.5971,1.5965,1.5965,1.596,1.5959,1.5957,1.5954,1.5949,1.5947,1.5945,1.594,1.5933,1.5929,1.5926,1.5923,1.5922,1.5927,1.5923,1.5907,1.5904,1.5902,1.59,1.5927,1.5927,1.594,1.594,1.594]}]]